RESURS-DK 1

Last updated on Sat Aug 15 2026 00:02:08 GMT+0000 (Coordinated Universal Time)

1 29228U 06021A 26226.59879969 .00000744 00000+0 47630-4 0 9990 2 29228 69.9312 188.3245 0006595 243.4855 116.5636 15.13410948111414
UTC large
Height (km)
Speed (km/s)
/
Latitude / Longitude
Inclination (degrees)
Orbital Period (minutes)
Azimuth
Elevation
Range (km)
Doppler Factor

Next 0 passes for location: London (51.5072 / 0.1276)

No passes found over London.
RESURS-DK 1